Weather History for Atwater, CA

Change the Weather History Date:

Tuesday, September 10, 2013

  Actual Average (KMCE) Record (KMCE)
Temperature  
Mean Temperature 79 °F 73 °F  
Max Temperature 98 °F 90 °F 100 °F (2011)
Min Temperature 60 °F 57 °F 50 °F (2010)
Degree Days  
Heating Degree Days 0    
Month to date heating degree days  
Since 1 July heating degree days  
Cooling Degree Days 14    
Month to date cooling degree days  
Year to date cooling degree days  
Growing Degree Days 29 (Base 50)    
Moisture  
Dew Point 52 °F    
Average Humidity 53    
Maximum Humidity 82    
Minimum Humidity 13    
Precipitation  
Precipitation 0.00 in 0.01 in 0.25 in (1978)
Month to date precipitation 0.06  
Year to date precipitation 8.76  
Since 1 July precipitation 0.08  
Snow  
Snow 0.00 in - - ()
Month to date snowfall  
Since 1 July snowfall  
Since 1 September snowfall  
Snow Depth -    
Sea Level Pressure  
Sea Level Pressure 29.75 in    
Wind  
Wind Speed 2 mph (NNW)    
Max Wind Speed 12 mph    
Max Gust Speed -    
Visibility 9 miles    
Events      
T = Trace of Precipitation, MM = Missing Value Source: NWS Daily Summary

Daily Weather History Graph

Daily Weather History Graph

Search for Another Location

Airport:

Trip Planner

Search our weather history database for the weather conditions in past years. The results will help you decide how hot, cold, wet, or windy it might be!

Date:

Astronomy

Sep. 10, 2013 Rise Set
Actual Time 6:40 AM PDT 7:17 PM PDT
Civil Twilight 6:14 AM PDT 7:43 PM PDT
Nautical Twilight 5:43 AM PDT 8:14 PM PDT
Astronomical Twilight 5:11 AM PDT 8:46 PM PDT
Moon 12:03 PM PDT (9/10) 10:32 PM PDT (9/10)
Length of Visible Light 13h 29m
Length of Day
12h 36m
Waxing Crescent, 29% of the Moon is Illuminated
Sep 10
Waxing Crescent
Sep 12
First Quarter
Sep 19
Full
Sep 26
Last Quarter
Oct 4
New

Hourly Weather History & Observations

Time (PDT) Temp. Heat Index Dew Point Humidity Pressure Visibility Wind Dir Wind Speed Gust Speed Precip Events Conditions
12:35 AM 73.4 °F - 48.2 °F 41% 29.68 in 10.0 mi Calm Calm - N/A   Clear
12:55 AM 68.0 °F - 51.8 °F 56% 29.68 in 10.0 mi Calm Calm - N/A   Clear
1:15 AM 69.8 °F - 51.8 °F 53% 29.69 in 10.0 mi Calm Calm - N/A   Clear
1:35 AM 68.0 °F - 53.6 °F 60% 29.68 in 10.0 mi Calm Calm - N/A   Clear
1:55 AM 68.0 °F - 53.6 °F 60% 29.68 in 10.0 mi Calm Calm - N/A   Clear
2:15 AM 66.2 °F - 53.6 °F 64% 29.69 in 10.0 mi Calm Calm - N/A   Clear
2:35 AM 66.2 °F - 53.6 °F 64% 29.68 in 10.0 mi Calm Calm - N/A   Clear
2:55 AM 66.2 °F - 55.4 °F 68% 29.68 in 10.0 mi Calm Calm - N/A   Clear
3:15 AM 66.2 °F - 53.6 °F 64% 29.68 in 10.0 mi Calm Calm - N/A   Clear
3:35 AM 64.4 °F - 53.6 °F 68% 29.69 in 10.0 mi Calm Calm - N/A   Clear
3:55 AM 64.4 °F - 53.6 °F 68% 29.69 in 10.0 mi Calm Calm - N/A   Clear
4:15 AM 64.4 °F - 55.4 °F 73% 29.69 in 10.0 mi Calm Calm - N/A   Clear
4:35 AM 62.6 °F - 53.6 °F 72% 29.69 in 10.0 mi Calm Calm - N/A   Clear
4:55 AM 62.6 °F - 51.8 °F 68% 29.69 in 10.0 mi Calm Calm - N/A   Clear
5:15 AM 60.8 °F - 55.4 °F 82% 29.70 in 10.0 mi Calm Calm - N/A   Clear
5:35 AM 62.6 °F - 55.4 °F 77% 29.70 in 10.0 mi Calm Calm - N/A   Clear
5:55 AM 62.6 °F - 55.4 °F 77% 29.70 in 10.0 mi Calm Calm - N/A   Clear
6:15 AM 62.6 °F - 53.6 °F 72% 29.71 in 10.0 mi Calm Calm - N/A   Clear
6:35 AM 62.6 °F - 53.6 °F 72% 29.71 in 10.0 mi Calm Calm - N/A   Clear
6:45 AM 60.8 °F - 53.6 °F 77% 29.72 in 7.0 mi Calm Calm - N/A   Clear
6:55 AM 60.8 °F - 53.6 °F 77% 29.72 in 10.0 mi Calm Calm - N/A   Clear
7:45 AM 66.2 °F - 53.6 °F 64% 29.74 in 7.0 mi Variable 3.5 mph - N/A   Clear
8:45 AM 75.2 °F - 48.2 °F 38% 29.76 in 7.0 mi Calm Calm - N/A   Clear
8:50 AM 84.2 °F 88.4 °F 69.8 °F 62% 30.13 in 10.0 mi East 6.9 mph - N/A   Mostly Cloudy
9:45 AM 80.6 °F - 48.2 °F 32% 29.77 in 7.0 mi Variable 3.5 mph - N/A   Clear
10:45 AM 87.8 °F - 48.2 °F 25% 29.77 in 7.0 mi Calm Calm - N/A   Clear
11:45 AM 91.4 °F - 46.4 °F 21% 29.76 in 7.0 mi Calm Calm - N/A   Clear
12:45 PM 96.8 °F - 39.2 °F 14% 29.75 in 7.0 mi Calm Calm - N/A   Clear
1:45 PM 98.6 °F - 39.2 °F 13% 29.74 in 7.0 mi Calm Calm - N/A   Clear
2:45 PM 98.6 °F - 42.8 °F 15% 29.73 in 7.0 mi Calm Calm - N/A   Clear
3:45 PM 98.6 °F - 39.2 °F 13% 29.72 in 7.0 mi Calm Calm - N/A   Clear
4:45 PM 96.8 °F - 44.6 °F 17% 29.71 in 7.0 mi NNW 6.9 mph - N/A   Clear
5:45 PM 95.0 °F - 46.4 °F 19% 29.74 in 7.0 mi NNW 6.9 mph - N/A   Clear
6:45 PM 89.6 °F - 51.8 °F 27% 29.76 in 7.0 mi West 5.8 mph - N/A   Clear
7:45 PM 80.6 °F - 51.8 °F 37% 29.77 in 7.0 mi West 5.8 mph - N/A   Clear
8:45 PM 75.2 °F - 53.6 °F 47% 29.79 in 10.0 mi West 8.1 mph - N/A   Clear
9:15 PM 75.2 °F - 55.4 °F 50% 29.80 in 10.0 mi WNW 6.9 mph - N/A   Clear
9:35 PM 73.4 °F - 55.4 °F 53% 29.81 in 10.0 mi NW 5.8 mph - N/A   Clear
9:55 PM 73.4 °F - 55.4 °F 53% 29.81 in 10.0 mi NNW 8.1 mph - N/A   Clear
10:15 PM 73.4 °F - 57.2 °F 57% 29.81 in 10.0 mi NNW 11.5 mph - N/A   Clear
10:35 PM 71.6 °F - 57.2 °F 60% 29.82 in 10.0 mi North 9.2 mph - N/A   Clear
10:55 PM 71.6 °F - 57.2 °F 60% 29.82 in 10.0 mi NNW 9.2 mph - N/A   Clear
11:15 PM 69.8 °F - 57.2 °F 64% 29.83 in 10.0 mi North 6.9 mph - N/A   Clear
11:35 PM 69.8 °F - 57.2 °F 64% 29.83 in 10.0 mi North 9.2 mph - N/A   Clear
11:55 PM 69.8 °F - 57.2 °F 64% 29.83 in 10.0 mi North 9.2 mph - N/A   Clear